SPARC-1 (44226 NORAD) Tracking and Keplerian Element Data

This shows tracking and keplerian element data for the satellite.

Feedback or suggestion? Click here.




ElementValue
Catalog44226
NameSPARC-1
Epoch Orbit314
Epoch Day145.95031125
Epoch Year2019
RAAN114.2301
Inclination40.0188
Eccentricity0.0010472
Argument of Perigee51.4926
Mean Anonmoly308.6813
Mean Motion15.21230879
Decay Rate7.46E-06
L11 44226U 19026B 19145.95031125 .00000746 00000-0 40743-4 0 9991
L22 44226 40.0188 114.2301 0010472 51.4926 308.6813 15.21230879 3149

Live tracking and technical data element details for SPARC-1 (NORAD 44226). SPARC-1 can be tracked NOW for your location showing map with azimuth and elevation plus other details from your city location.

Track the satellite on the map from your city or location and see movement details for azimuth, elevation, latitude, longitude, range, height, and movement on the map or in text.







IsCatalogInMostPopularTable: catalog: 44226, numindb: 9
Update: records affected: 1



GetName: 44226 SPARC-1

Hit Count: updated at: Sun, 26 May 2019 07:58:28 GMT